Weather Roundup
Issued by NWS Chicago, IL

Home | Current Version | Previous Version | Text Only | Print | Product List | Glossary On
Versions: 1 2 3 4 5 6 7 8 9 10 11 12 13 14 15 16 17 18 19 20 21 22 23 24 25 26 27 28 29 30 31 32 33 34 35 36 37 38 39 40 41 42 43 44 45 46 47 48 49 50
000
NZUS59 KLOT 231310
HRRLOT

CHICAGO AREA WEATHER ROUNDUP
NATIONAL WEATHER SERVICE CHICAGO/ROMEOVILLE IL
800 AM CDT WED APR 23 2014

NOTE: "FAIR" INDICATES FEW OR NO CLOUDS BELOW 12,000 FEET WITH NO
SIGNIFICANT WEATHER AND/OR OBSTRUCTIONS TO VISIBILITY.

* THESE STATIONS ARE NOT UNDER NWS QUALITY CONTROL. THEY ALSO MAY NOT
  REPORT WEATHER SUCH AS PRECIPITATION OR FOG.

ILZ005-006-012>014-019>023-231400-
NORTHEAST ILLINOIS

CITY           SKY/WX    TMP DP  RH WIND       PRES   REMARKS
OHARE          MOSUNNY   40  26  57 NE14      30.17R
MIDWAY         MOSUNNY   40  27  59 NE15      30.17R
AURORA         SUNNY     38  30  73 NE8       30.17S
LANSING*       SUNNY     39  27  62 NE12G17   30.17R
JOLIET*        SUNNY     38  29  69 NE9       30.18S
WAUKEGAN       SUNNY     38  28  67 VRB6      30.17R
DUPAGE AIRPORT SUNNY     38  30  73 NE15      30.16R
WHEELING       SUNNY     39  27  62 NE13G18   30.19R
KANKAKEE*      SUNNY     38  31  74 N10       30.17S
MORRIS*        SUNNY     39  29  67 E6        30.17R
LEWIS AIRPORT* SUNNY     39  28  65 NE10      30.17R
NORTHERLY IS     N/A     38  29  70 N15         N/A
$$

WIZ051-052-058>065-066-070>072-231400-
SOUTHEAST WISCONSIN

CITY           SKY/WX    TMP DP  RH WIND       PRES   REMARKS
MILWAUKEE      MOSUNNY   38  28  67 N9        30.17S
KENOSHA*       SUNNY     38  30  73 VRB6      30.17R
RACINE*        SUNNY     39  28  64 NE14      30.18R
BURLINGTON     SUNNY     34  30  86 CALM      30.17R
WAUKESHA       SUNNY     36  28  75 CALM      30.18R
WEST BEND      SUNNY     36  27  69 NE6       30.17S
$$

INZ001>003-010>013-019-020-231400-
NORTHWEST INDIANA

CITY           SKY/WX    TMP DP  RH WIND       PRES   REMARKS
GARY*          MOSUNNY   39  28  65 NE12G17   30.18R
MICHIGAN CITY* NOT AVBL
RENSSELAER*    NOT AVBL
VALPARAISO     SUNNY     37  28  70 N9G17     30.16R
$$

LMZ740>746-231400-
SOUTHERN LAKE MICHIGAN

STATION/POSITION TIME  SKY/WX   TEMP WIND        PRES    VSBY
                                AIR  DIR/SP/G
                 (UTC)          (F)  (DEG/KT/KT) (MB)    (MI)
HARRISON CRIB    1300            36   20/ 15/ 19   N/A
BURNHAM HARBOR   1300            38   20/ 14/ 16   N/A
CALUMET HARBOR   1300            38   10/ 13/ 17 1022.7R
BURNS HARBOR     NOT AVBL
MICHIGAN CITY    1300            36   10/ 18/ 22   N/A
$$

ABBREVIATIONS USED IN REMARKS
   TC - TEMPERATURE IN CELSIUS
  WCI - WIND CHILL INDEX
   HX - HEAT INDEX
  VSB - VISIBILITY
$$


USA.gov is the U.S. government's official web portal to all federal, state and local government web resources and services.